CW4541 Weather Reports


Display with metric or nautical units.
time (UTC)temp
F
wind
direction
speed
MPH
gust
MPH
rain 1hr
in
rain 24hr
in
rain mn
in
humidity
%
barometer
mb
20260902050605 58 187 0.0 0.0 0.00 0.01 0.01 55 1023.9
20260902050112 58 188 0.0 0.0 0.00 0.01 0.01 54 1023.9
20260902020607 62 21 0.0 0.0 0.00 0.01 0.01 37 1023.2
20260902010607 70 17 1.0 6.0 0.00 0.01 0.01 22 1023.1
20260902010113 70 20 1.0 6.0 0.00 0.01 0.01 22 1023.2
20260902000606 74 222 2.0 9.0 0.00 0.01 0.01 20 1023.6
20260902000111 74 199 1.0 6.0 0.00 0.01 0.01 21 1023.6
20260901230606 75 197 1.0 7.0 0.00 0.01 0.01 22 1023.8
20260901230112 75 216 1.0 8.0 0.00 0.01 0.01 22 1023.8
20260901220605 74 207 2.0 6.0 0.00 0.01 0.01 21 1024.5
20260901220112 74 234 2.0 7.0 0.00 0.01 0.01 22 1024.7
20260901210606 74 24 2.0 8.0 0.00 0.01 0.01 28 1025.2
20260901200606 74 20 2.0 12.0 0.00 0.01 0.01 31 1026.3
20260901200112 74 21 2.0 12.0 0.00 0.01 0.01 32 1026.3
20260901190606 72 18 2.0 9.0 0.00 0.01 0.01 40 1026.8
20260901190111 71 18 1.0 8.0 0.00 0.01 0.01 41 1026.8
20260901180605 69 15 2.0 9.0 0.00 0.07 0.01 47 1027.6
20260901170605 67 15 1.0 6.0 0.00 0.17 0.01 52 1027.9
20260901170111 68 17 1.0 5.0 0.00 0.17 0.01 53 1027.8
20260901160112 64 15 1.0 5.0 0.00 0.19 0.01 61 1028.2
20260901150606 59 15 1.0 6.0 0.00 0.19 0.01 69 1028.1
20260901150111 59 15 1.0 3.0 0.00 0.19 0.01 71 1028.2
20260901140606 51 127 0.0 5.0 0.00 0.19 0.01 85 1028.3
20260901140111 51 126 0.0 6.0 0.00 0.19 0.01 85 1028.3
20260901130606 48 90 0.0 0.0 0.00 0.19 0.01 84 1028.2
20260901130111 48 90 0.0 0.0 0.00 0.19 0.01 84 1028.1
20260901120605 48 153 0.0 0.0 0.00 0.19 0.01 84 1027.4
20260901120111 48 152 0.0 0.0 0.00 0.19 0.01 84 1027.5
20260901110605 49 150 0.0 1.0 0.01 0.19 0.01 84 1027.1
20260901110111 49 151 0.0 2.0 0.01 0.19 0.01 84 1027.0
20260901100605 49 144 0.0 0.0 0.00 0.18 0.00 84 1027.0
20260901100111 49 144 0.0 0.0 0.00 0.18 0.00 84 1027.0
20260901090605 50 186 0.0 0.0 0.00 0.18 0.00 84 1027.1
20260901090111 51 186 0.0 1.0 0.00 0.18 0.00 84 1027.1
20260901080605 50 160 0.0 2.0 0.00 0.18 0.00 84 1027.3
20260901080111 50 158 0.0 1.0 0.00 0.18 0.00 83 1027.3
20260901070605 51 197 0.0 1.0 0.00 0.18 0.00 83 1027.5
20260901070110 51 198 0.0 1.0 0.00 0.18 0.00 84 1027.4
20260901060111 52 198 0.0 1.0 0.00 0.18 0.00 83 1027.2